QPF
0.00 0.00 0.01 0.03 0.03 0.03 0.04 0.04 0.03 0.03 0.03 0.03 0.03 0.04 0.06 0.05 0.04 0.04 0.03 0.03 0.03 0.03 0.03 0.03 0.03 0.03 0.02 0.03 0.03 0.03 0.02 0.02 0.01 0.01 0.01 0.00 0.00 0.00 0.00 0.01 0.01 0.02 0.02
0.00 0.00 0.01 0.03 0.04 0.04 0.04 0.04 0.04 0.04 0.03 0.04 0.04 0.05 0.07 0.07 0.04 0.04 0.04 0.03 0.04 0.03 0.03 0.03 0.04 0.04 0.03 0.03 0.02 0.02 0.01 0.01 0.01 0.00 0.00 0.00 0.00 0.00 0.01 0.01 0.01 0.02 0.02
0.00 0.00 0.01 0.03 0.04 0.04 0.05 0.05 0.05 0.05 0.04 0.04 0.05 0.06 0.08 0.09 0.07 0.06 0.05 0.04 0.05 0.04 0.04 0.04 0.04 0.04 0.04 0.03 0.02 0.01 0.01 0.01 0.00 0.00 0.00 0.00 0.00 0.01 0.01 0.01 0.02 0.03 0.02
0.00 0.00 0.01 0.03 0.04 0.04 0.05 0.05 0.06 0.06 0.06 0.06 0.07 0.07 0.09 0.09 0.09 0.08 0.07 0.05 0.07 0.06 0.05 0.05 0.04 0.04 0.03 0.02 0.01 0.01 0.00 0.00 0.00 0.00 0.00 0.00 0.01 0.02 0.02 0.02 0.03 0.03 0.02
0.00 0.00 0.01 0.03 0.04 0.05 0.05 0.06 0.06 0.07 0.07 0.08 0.07 0.07 0.08 0.09 0.09 0.10 0.08 0.07 0.07 0.08 0.07 0.06 0.05 0.04 0.02 0.02 0.02 0.01 0.00 0.00 0.00 0.00 0.00 0.00 0.01 0.02 0.02 0.02 0.03 0.02 0.01
0.00 0.00 0.01 0.04 0.05 0.05 0.06 0.07 0.07 0.07 0.07 0.08 0.08 0.08 0.08 0.09 0.09 0.09 0.09 0.09 0.09 0.08 0.08 0.07 0.06 0.04 0.03 0.02 0.01 0.01 0.00 0.00 0.00 0.00 0.00 0.00 0.01 0.02 0.03 0.02 0.02 0.02 0.01
0.00 0.00 0.01 0.05 0.06 0.06 0.06 0.07 0.07 0.07 0.08 0.08 0.09 0.08 0.09 0.09 0.09 0.09 0.08 0.08 0.09 0.08 0.08 0.09 0.07 0.05 0.03 0.02 0.01 0.00 0.00 0.00 0.00 0.00 0.00 0.00 0.01 0.02 0.03 0.03 0.02 0.01 0.01
0.00 0.01 0.02 0.05 0.06 0.06 0.06 0.07 0.07 0.07 0.07 0.08 0.08 0.08 0.09 0.10 0.09 0.09 0.08 0.08 0.08 0.08 0.08 0.08 0.07 0.05 0.03 0.02 0.01 0.00 0.00 0.00 0.00 0.00 0.00 0.00 0.01 0.02 0.03 0.02 0.02 0.01 0.01
0.00 0.01 0.02 0.06 0.07 0.07 0.07 0.08 0.09 0.08 0.07 0.07 0.07 0.08 0.09 0.09 0.09 0.09 0.08 0.08 0.08 0.08 0.08 0.08 0.07 0.05 0.03 0.02 0.01 0.00 0.00 0.00 0.00 0.00 0.00 0.00 0.01 0.02 0.03 0.02 0.01 0.01 0.01
0.01 0.01 0.03 0.06 0.08 0.08 0.08 0.08 0.09 0.09 0.07 0.08 0.08 0.08 0.07 0.08 0.07 0.08 0.08 0.08 0.09 0.09 0.10 0.10 0.09 0.06 0.05 0.03 0.02 0.01 0.01 0.00 0.00 0.00 0.00 0.00 0.01 0.02 0.03 0.02 0.01 0.01 0.01
0.01 0.02 0.04 0.06 0.07 0.08 0.08 0.08 0.10 0.10 0.09 0.09 0.09 0.08 0.08 0.07 0.06 0.06 0.07 0.07 0.08 0.09 0.09 0.11 0.10 0.09 0.08 0.07 0.04 0.02 0.02 0.01 0.01 0.00 0.00 0.00 0.01 0.02 0.03 0.02 0.01 0.01 0.01
0.01 0.02 0.04 0.05 0.07 0.08 0.08 0.08 0.10 0.11 0.10 0.09 0.07 0.07 0.06 0.06 0.06 0.05 0.05 0.05 0.06 0.07 0.10 0.12 0.13 0.12 0.11 0.08 0.05 0.03 0.02 0.01 0.01 0.01 0.00 0.00 0.01 0.02 0.03 0.02 0.01 0.01 0.01
0.01 0.02 0.03 0.04 0.06 0.09 0.09 0.08 0.08 0.10 0.11 0.10 0.08 0.06 0.06 0.06 0.06 0.06 0.05 0.05 0.05 0.07 0.09 0.11 0.13 0.14 0.11 0.07 0.04 0.03 0.02 0.02 0.01 0.01 0.00 0.01 0.01 0.02 0.03 0.02 0.01 0.02 0.02
0.01 0.02 0.03 0.04 0.05 0.09 0.10 0.10 0.09 0.09 0.10 0.10 0.09 0.08 0.06 0.06 0.05 0.05 0.04 0.03 0.04 0.04 0.07 0.10 0.13 0.13 0.12 0.08 0.05 0.03 0.02 0.02 0.02 0.01 0.01 0.00 0.01 0.02 0.03 0.03 0.01 0.01 0.02
0.01 0.02 0.03 0.04 0.05 0.08 0.11 0.11 0.09 0.09 0.09 0.09 0.09 0.07 0.06 0.05 0.04 0.04 0.03 0.03 0.03 0.03 0.05 0.07 0.10 0.11 0.10 0.09 0.06 0.03 0.03 0.02 0.01 0.01 0.01 0.00 0.01 0.01 0.03 0.04 0.03 0.02 0.01
0.01 0.02 0.03 0.04 0.06 0.09 0.11 0.11 0.11 0.09 0.09 0.10 0.09 0.07 0.07 0.06 0.05 0.04 0.03 0.02 0.02 0.03 0.05 0.06 0.08 0.09 0.09 0.08 0.07 0.05 0.03 0.02 0.01 0.01 0.01 0.01 0.01 0.01 0.02 0.04 0.04 0.03 0.02
0.03 0.04 0.04 0.04 0.06 0.09 0.11 0.12 0.12 0.10 0.09 0.12 0.12 0.08 0.07 0.07 0.07 0.05 0.03 0.02 0.02 0.03 0.05 0.07 0.09 0.09 0.09 0.09 0.08 0.07 0.06 0.04 0.02 0.01 0.01 0.01 0.01 0.01 0.01 0.03 0.04 0.03 0.02
0.05 0.06 0.06 0.05 0.06 0.09 0.10 0.13 0.12 0.12 0.10 0.12 0.14 0.11 0.06 0.06 0.07 0.06 0.06 0.04 0.03 0.03 0.04 0.06 0.09 0.10 0.10 0.09 0.08 0.08 0.07 0.06 0.04 0.03 0.01 0.01 0.01 0.01 0.01 0.02 0.03 0.03 0.03
0.04 0.05 0.06 0.06 0.06 0.08 0.10 0.14 0.15 0.14 0.12 0.11 0.14 0.14 0.09 0.07 0.06 0.05 0.05 0.06 0.06 0.04 0.04 0.05 0.08 0.09 0.10 0.10 0.10 0.10 0.09 0.07 0.05 0.04 0.03 0.02 0.01 0.01 0.01 0.01 0.02 0.02 0.03
0.02 0.03 0.05 0.07 0.08 0.10 0.11 0.13 0.17 0.17 0.16 0.13 0.11 0.15 0.14 0.10 0.08 0.06 0.05 0.04 0.05 0.06 0.04 0.04 0.06 0.07 0.09 0.10 0.11 0.11 0.11 0.10 0.08 0.05 0.03 0.02 0.01 0.01 0.01 0.01 0.01 0.01 0.01
0.07 0.04 0.05 0.06 0.07 0.09 0.12 0.14 0.15 0.17 0.17 0.16 0.12 0.09 0.15 0.16 0.12 0.08 0.07 0.05 0.04 0.04 0.04 0.04 0.04 0.06 0.07 0.09 0.12 0.14 0.13 0.11 0.10 0.07 0.04 0.03 0.01 0.01 0.01 0.01 0.00 0.01 0.01
0.08 0.07 0.06 0.06 0.06 0.08 0.11 0.14 0.13 0.16 0.16 0.16 0.14 0.10 0.10 0.18 0.18 0.13 0.09 0.07 0.06 0.05 0.04 0.04 0.04 0.05 0.06 0.09 0.11 0.12 0.14 0.15 0.12 0.08 0.06 0.04 0.02 0.01 0.01 0.01 0.00 0.00 0.00
0.03 0.04 0.05 0.05 0.05 0.06 0.08 0.12 0.13 0.16 0.18 0.17 0.17 0.12 0.08 0.10 0.15 0.16 0.12 0.08 0.08 0.07 0.07 0.06 0.05 0.04 0.05 0.07 0.09 0.10 0.11 0.11 0.09 0.08 0.06 0.05 0.03 0.02 0.01 0.01 0.01 0.00 0.00
0.03 0.04 0.04 0.04 0.05 0.05 0.07 0.10 0.11 0.14 0.16 0.16 0.15 0.13 0.09 0.08 0.09 0.10 0.12 0.11 0.10 0.09 0.08 0.07 0.07 0.06 0.05 0.07 0.09 0.10 0.09 0.08 0.06 0.07 0.06 0.06 0.05 0.03 0.01 0.01 0.01 0.00 0.00
0.04 0.04 0.05 0.05 0.05 0.05 0.06 0.08 0.09 0.11 0.12 0.12 0.14 0.15 0.14 0.11 0.09 0.09 0.08 0.10 0.13 0.12 0.11 0.10 0.09 0.08 0.06 0.06 0.08 0.09 0.10 0.09 0.07 0.06 0.06 0.05 0.05 0.04 0.03 0.02 0.01 0.01 0.01
0.06 0.06 0.06 0.06 0.05 0.05 0.06 0.07 0.08 0.08 0.08 0.08 0.09 0.15 0.17 0.15 0.13 0.12 0.11 0.10 0.11 0.13 0.13 0.12 0.11 0.10 0.09 0.06 0.07 0.08 0.09 0.09 0.08 0.06 0.06 0.05 0.05 0.04 0.03 0.04 0.03 0.02 0.01
MSLP
1013.03 1012.66 1012.30 1012.00 1011.77 1011.62 1011.53 1011.46 1011.37 1011.24 1011.06 1010.87 1010.68 1010.52 1010.41 1010.36 1010.34 1010.35 1010.33 1010.29 1010.20 1010.08 1009.96 1009.86 1009.81 1009.82 1009.90 1010.02 1010.17 1010.32 1010.46 1010.56 1010.64 1010.71 1010.78 1010.85 1010.94 1011.04 1011.15 1011.25 1011.33 1011.42 1011.50
1013.32 1012.98 1012.63 1012.33 1012.10 1011.93 1011.81 1011.70 1011.56 1011.38 1011.15 1010.90 1010.66 1010.46 1010.31 1010.22 1010.18 1010.15 1010.11 1010.03 1009.93 1009.80 1009.67 1009.57 1009.54 1009.57 1009.67 1009.81 1009.98 1010.15 1010.30 1010.42 1010.52 1010.59 1010.67 1010.75 1010.84 1010.95 1011.05 1011.14 1011.23 1011.31 1011.39
1013.60 1013.28 1012.95 1012.66 1012.43 1012.25 1012.10 1011.96 1011.78 1011.55 1011.28 1010.99 1010.71 1010.46 1010.27 1010.14 1010.05 1009.97 1009.88 1009.77 1009.63 1009.48 1009.34 1009.25 1009.22 1009.27 1009.39 1009.56 1009.75 1009.94 1010.10 1010.24 1010.34 1010.43 1010.52 1010.61 1010.71 1010.81 1010.92 1011.02 1011.11 1011.20 1011.30
1013.85 1013.56 1013.25 1012.98 1012.76 1012.57 1012.41 1012.24 1012.03 1011.77 1011.47 1011.15 1010.84 1010.56 1010.33 1010.15 1010.00 1009.86 1009.72 1009.56 1009.38 1009.19 1009.04 1008.94 1008.91 1008.97 1009.10 1009.28 1009.48 1009.69 1009.87 1010.01 1010.13 1010.24 1010.33 1010.43 1010.54 1010.66 1010.77 1010.88 1010.99 1011.10 1011.23
1014.06 1013.81 1013.55 1013.30 1013.09 1012.91 1012.74 1012.55 1012.32 1012.05 1011.72 1011.38 1011.04 1010.73 1010.46 1010.23 1010.03 1009.84 1009.64 1009.42 1009.19 1008.98 1008.79 1008.68 1008.64 1008.69 1008.82 1009.00 1009.20 1009.41 1009.60 1009.75 1009.89 1010.00 1010.11 1010.22 1010.34 1010.47 1010.60 1010.73 1010.87 1011.02 1011.18
1014.25 1014.05 1013.83 1013.63 1013.44 1013.27 1013.10 1012.89 1012.65 1012.35 1012.01 1011.65 1011.29 1010.95 1010.65 1010.38 1010.13 1009.88 1009.63 1009.36 1009.09 1008.84 1008.63 1008.48 1008.42 1008.45 1008.56 1008.72 1008.91 1009.11 1009.29 1009.45 1009.59 1009.71 1009.83 1009.96 1010.10 1010.24 1010.40 1010.56 1010.74 1010.93 1011.14
1014.43 1014.28 1014.11 1013.95 1013.79 1013.64 1013.46 1013.25 1012.99 1012.67 1012.31 1011.93 1011.54 1011.18 1010.84 1010.53 1010.24 1009.96 1009.66 1009.35 1009.05 1008.76 1008.52 1008.35 1008.25 1008.24 1008.31 1008.44 1008.60 1008.77 1008.93 1009.09 1009.23 1009.36 1009.49 1009.64 1009.79 1009.96 1010.14 1010.34 1010.56 1010.80 1011.07
1014.59 1014.50 1014.39 1014.27 1014.14 1013.99 1013.82 1013.59 1013.30 1012.96 1012.57 1012.16 1011.75 1011.36 1010.99 1010.65 1010.33 1010.01 1009.68 1009.35 1009.02 1008.71 1008.44 1008.23 1008.09 1008.03 1008.05 1008.13 1008.24 1008.38 1008.52 1008.66 1008.80 1008.94 1009.09 1009.24 1009.42 1009.61 1009.82 1010.06 1010.32 1010.61 1010.93
1014.75 1014.71 1014.64 1014.56 1014.46 1014.32 1014.13 1013.89 1013.57 1013.20 1012.78 1012.34 1011.90 1011.48 1011.08 1010.71 1010.35 1010.01 1009.66 1009.30 1008.95 1008.62 1008.32 1008.07 1007.89 1007.78 1007.74 1007.76 1007.83 1007.92 1008.04 1008.17 1008.31 1008.46 1008.62 1008.79 1008.98 1009.19 1009.43 1009.70 1010.00 1010.34 1010.71
1014.89 1014.89 1014.86 1014.81 1014.72 1014.59 1014.39 1014.12 1013.78 1013.38 1012.93 1012.46 1011.99 1011.54 1011.11 1010.71 1010.32 1009.95 1009.58 1009.21 1008.84 1008.48 1008.15 1007.87 1007.64 1007.47 1007.37 1007.34 1007.35 1007.41 1007.51 1007.63 1007.77 1007.93 1008.11 1008.30 1008.51 1008.74 1008.99 1009.28 1009.61 1009.99 1010.41
1015.00 1015.04 1015.04 1015.00 1014.93 1014.79 1014.58 1014.29 1013.93 1013.51 1013.04 1012.55 1012.06 1011.58 1011.12 1010.69 1010.27 1009.87 1009.47 1009.08 1008.68 1008.29 1007.93 1007.60 1007.32 1007.10 1006.94 1006.85 1006.83 1006.86 1006.94 1007.07 1007.22 1007.40 1007.60 1007.81 1008.03 1008.27 1008.54 1008.84 1009.19 1009.59 1010.04
1015.08 1015.14 1015.16 1015.14 1015.06 1014.91 1014.69 1014.40 1014.03 1013.60 1013.13 1012.63 1012.13 1011.64 1011.16 1010.70 1010.26 1009.82 1009.39 1008.95 1008.51 1008.08 1007.67 1007.28 1006.95 1006.67 1006.46 1006.33 1006.27 1006.28 1006.37 1006.50 1006.68 1006.89 1007.11 1007.35 1007.58 1007.83 1008.10 1008.41 1008.76 1009.18 1009.65
1015.12 1015.19 1015.22 1015.21 1015.13 1014.98 1014.76 1014.46 1014.10 1013.69 1013.23 1012.75 1012.26 1011.77 1011.29 1010.81 1010.33 1009.86 1009.37 1008.88 1008.38 1007.89 1007.41 1006.96 1006.56 1006.22 1005.96 1005.78 1005.70 1005.71 1005.80 1005.96 1006.17 1006.41 1006.66 1006.92 1007.18 1007.43 1007.70 1008.01 1008.36 1008.77 1009.26
1015.11 1015.20 1015.25 1015.23 1015.15 1015.00 1014.78 1014.50 1014.17 1013.79 1013.37 1012.93 1012.47 1012.00 1011.52 1011.03 1010.52 1010.00 1009.46 1008.90 1008.33 1007.76 1007.21 1006.68 1006.20 1005.79 1005.48 1005.26 1005.15 1005.15 1005.25 1005.44 1005.68 1005.96 1006.24 1006.53 1006.80 1007.07 1007.35 1007.65 1007.99 1008.41 1008.89
1015.08 1015.19 1015.24 1015.22 1015.14 1015.00 1014.79 1014.54 1014.24 1013.90 1013.54 1013.15 1012.74 1012.30 1011.84 1011.34 1010.82 1010.25 1009.66 1009.03 1008.38 1007.72 1007.08 1006.46 1005.90 1005.42 1005.04 1004.78 1004.64 1004.63 1004.73 1004.93 1005.20 1005.51 1005.83 1006.14 1006.44 1006.72 1007.00 1007.30 1007.65 1008.06 1008.54
1015.03 1015.15 1015.21 1015.20 1015.12 1014.98 1014.79 1014.56 1014.30 1014.02 1013.71 1013.38 1013.02 1012.62 1012.19 1011.70 1011.16 1010.56 1009.92 1009.23 1008.50 1007.76 1007.03 1006.33 1005.68 1005.12 1004.67 1004.36 1004.18 1004.14 1004.23 1004.43 1004.70 1005.03 1005.37 1005.71 1006.02 1006.33 1006.63 1006.95 1007.30 1007.72 1008.21
1014.98 1015.12 1015.18 1015.17 1015.09 1014.96 1014.78 1014.57 1014.34 1014.10 1013.84 1013.56 1013.25 1012.89 1012.48 1012.00 1011.46 1010.85 1010.17 1009.44 1008.66 1007.86 1007.06 1006.28 1005.55 1004.91 1004.39 1004.00 1003.76 1003.68 1003.74 1003.91 1004.18 1004.50 1004.85 1005.19 1005.53 1005.86 1006.18 1006.53 1006.91 1007.35 1007.85
1014.92 1015.07 1015.14 1015.13 1015.05 1014.91 1014.74 1014.55 1014.34 1014.12 1013.89 1013.63 1013.35 1013.02 1012.62 1012.17 1011.63 1011.03 1010.35 1009.60 1008.80 1007.96 1007.11 1006.28 1005.49 1004.78 1004.18 1003.72 1003.41 1003.26 1003.25 1003.38 1003.61 1003.91 1004.24 1004.59 1004.94 1005.29 1005.64 1006.02 1006.45 1006.92 1007.46
1014.85 1015.00 1015.06 1015.05 1014.96 1014.83 1014.66 1014.46 1014.26 1014.04 1013.81 1013.56 1013.28 1012.95 1012.57 1012.13 1011.62 1011.03 1010.38 1009.65 1008.86 1008.03 1007.17 1006.30 1005.47 1004.70 1004.03 1003.49 1003.09 1002.86 1002.78 1002.84 1003.00 1003.26 1003.56 1003.90 1004.25 1004.62 1005.02 1005.44 1005.91 1006.44 1007.02
1014.76 1014.89 1014.94 1014.91 1014.82 1014.69 1014.51 1014.31 1014.10 1013.86 1013.61 1013.33 1013.03 1012.69 1012.30 1011.87 1011.39 1010.84 1010.24 1009.56 1008.82 1008.02 1007.18 1006.31 1005.45 1004.63 1003.90 1003.28 1002.80 1002.48 1002.31 1002.28 1002.38 1002.58 1002.84 1003.16 1003.52 1003.91 1004.33 1004.81 1005.33 1005.91 1006.54
1014.63 1014.73 1014.75 1014.72 1014.62 1014.48 1014.31 1014.10 1013.86 1013.59 1013.30 1012.97 1012.63 1012.25 1011.85 1011.43 1010.97 1010.48 1009.93 1009.33 1008.66 1007.92 1007.11 1006.26 1005.39 1004.54 1003.74 1003.05 1002.49 1002.08 1001.82 1001.72 1001.75 1001.89 1002.12 1002.42 1002.78 1003.19 1003.65 1004.18 1004.76 1005.39 1006.07
1014.45 1014.51 1014.51 1014.46 1014.36 1014.23 1014.05 1013.83 1013.57 1013.27 1012.92 1012.54 1012.14 1011.71 1011.28 1010.86 1010.42 1009.98 1009.50 1008.97 1008.38 1007.70 1006.93 1006.10 1005.22 1004.34 1003.49 1002.73 1002.09 1001.60 1001.28 1001.11 1001.09 1001.20 1001.41 1001.71 1002.08 1002.52 1003.03 1003.60 1004.23 1004.92 1005.64
1014.24 1014.25 1014.22 1014.16 1014.07 1013.94 1013.78 1013.56 1013.28 1012.94 1012.54 1012.10 1011.63 1011.15 1010.69 1010.25 1009.83 1009.42 1009.00 1008.53 1007.99 1007.36 1006.62 1005.79 1004.89 1003.96 1003.06 1002.23 1001.53 1000.99 1000.61 1000.42 1000.38 1000.49 1000.71 1001.04 1001.45 1001.93 1002.49 1003.11 1003.79 1004.52 1005.27
1014.00 1013.97 1013.92 1013.86 1013.78 1013.67 1013.52 1013.31 1013.02 1012.65 1012.21 1011.70 1011.17 1010.65 1010.14 1009.68 1009.26 1008.87 1008.48 1008.04 1007.52 1006.90 1006.14 1005.28 1004.33 1003.34 1002.37 1001.49 1000.74 1000.16 999.77 999.58 999.58 999.73 1000.01 1000.40 1000.88 1001.43 1002.04 1002.71 1003.44 1004.20 1004.98
1013.79 1013.73 1013.66 1013.60 1013.53 1013.44 1013.31 1013.11 1012.82 1012.42 1011.94 1011.39 1010.81 1010.23 1009.69 1009.20 1008.77 1008.37 1007.97 1007.52 1006.98 1006.31 1005.50 1004.56 1003.52 1002.45 1001.40 1000.45 999.67 999.08 998.72 998.58 998.65 998.89 999.27 999.77 1000.34 1000.97 1001.66 1002.39 1003.16 1003.94 1004.73
1013.62 1013.54 1013.47 1013.42 1013.36 1013.29 1013.17 1012.98 1012.67 1012.26 1011.75 1011.16 1010.53 1009.91 1009.33 1008.81 1008.35 1007.92 1007.48 1006.98 1006.37 1005.62 1004.70 1003.64 1002.48 1001.30 1000.16 999.15 998.34 997.77 997.46 997.40 997.58 997.96 998.48 999.10 999.79 1000.53 1001.30 1002.10 1002.90 1003.71 1004.51
Thickness
5755 5758 5758 5761 5763 5765 5766 5766 5766 5766 5766 5765 5764 5764 5763 5762 5762 5760 5759 5758 5757 5756 5755 5754 5752 5751 5750 5748 5747 5745 5743 5742 5740 5739 5737 5736 5734 5733 5731 5730 5729 5728 5725
5749 5753 5753 5755 5758 5760 5761 5762 5762 5762 5762 5761 5761 5760 5759 5759 5758 5757 5756 5755 5754 5753 5752 5750 5749 5748 5746 5745 5743 5741 5740 5738 5736 5735 5733 5732 5731 5729 5727 5726 5725 5724 5721
5745 5747 5749 5749 5752 5754 5755 5756 5757 5757 5757 5757 5757 5756 5755 5755 5754 5754 5753 5751 5750 5749 5748 5747 5746 5744 5743 5741 5739 5738 5736 5734 5732 5731 5730 5731 5728 5725 5723 5722 5721 5719 5717
5739 5741 5742 5743 5745 5747 5749 5750 5751 5752 5752 5752 5752 5751 5751 5750 5750 5750 5749 5748 5747 5746 5745 5744 5742 5741 5739 5737 5735 5734 5732 5730 5728 5728 5729 5728 5726 5722 5720 5718 5717 5715 5713
5733 5734 5735 5736 5738 5740 5742 5744 5745 5746 5746 5747 5747 5747 5746 5746 5746 5745 5745 5744 5743 5742 5741 5740 5738 5736 5735 5733 5731 5729 5727 5726 5725 5725 5726 5724 5722 5718 5716 5714 5712 5710 5708
5726 5728 5729 5729 5731 5733 5735 5737 5739 5740 5741 5741 5741 5742 5742 5741 5741 5741 5740 5739 5739 5738 5737 5735 5734 5732 5731 5728 5727 5725 5723 5722 5722 5722 5722 5720 5718 5714 5712 5710 5708 5706 5704
5718 5720 5721 5722 5724 5726 5728 5730 5732 5733 5734 5735 5735 5736 5736 5736 5736 5736 5735 5735 5734 5733 5732 5731 5729 5728 5726 5724 5722 5720 5719 5718 5719 5718 5717 5716 5713 5710 5708 5706 5704 5701 5699
5709 5711 5713 5714 5716 5718 5721 5722 5724 5726 5727 5728 5729 5730 5731 5731 5731 5731 5730 5730 5729 5728 5727 5726 5725 5723 5722 5720 5718 5716 5714 5713 5713 5713 5712 5711 5708 5706 5704 5702 5699 5697 5694
5700 5702 5705 5707 5708 5710 5712 5715 5717 5718 5720 5721 5722 5723 5724 5725 5725 5725 5725 5724 5724 5723 5722 5722 5721 5719 5717 5716 5713 5711 5710 5708 5710 5709 5708 5706 5703 5701 5700 5697 5695 5692 5690
5690 5693 5696 5698 5700 5702 5705 5707 5708 5710 5712 5714 5716 5717 5718 5719 5719 5720 5720 5719 5718 5718 5717 5716 5715 5714 5713 5710 5708 5706 5704 5703 5705 5704 5703 5701 5698 5697 5695 5693 5690 5688 5685
5681 5683 5685 5688 5690 5692 5696 5698 5700 5702 5704 5706 5708 5710 5711 5712 5714 5714 5714 5713 5713 5712 5712 5711 5710 5709 5707 5705 5703 5701 5699 5701 5701 5700 5699 5696 5694 5693 5691 5688 5686 5683 5680
5670 5672 5674 5677 5679 5681 5685 5689 5691 5694 5696 5699 5701 5702 5704 5705 5707 5707 5707 5707 5706 5706 5706 5706 5705 5703 5702 5701 5698 5696 5697 5697 5697 5695 5693 5690 5689 5688 5686 5683 5681 5679 5676
5658 5659 5662 5665 5668 5670 5674 5678 5682 5684 5687 5690 5693 5694 5696 5697 5699 5700 5700 5700 5700 5700 5701 5700 5699 5700 5699 5699 5697 5695 5695 5694 5693 5691 5689 5685 5684 5683 5682 5679 5676 5674 5671
5647 5649 5650 5653 5655 5659 5662 5667 5671 5674 5678 5681 5684 5685 5687 5689 5691 5692 5693 5694 5694 5695 5695 5695 5696 5695 5694 5693 5692 5691 5690 5689 5689 5687 5684 5681 5679 5678 5677 5674 5672 5669 5666
5636 5638 5639 5640 5643 5646 5650 5655 5660 5664 5668 5672 5674 5676 5678 5680 5683 5684 5686 5686 5687 5687 5688 5689 5690 5689 5688 5688 5688 5687 5686 5685 5684 5682 5680 5676 5674 5673 5672 5669 5667 5665 5662
5626 5627 5628 5629 5631 5634 5638 5643 5648 5653 5657 5661 5665 5668 5669 5671 5674 5675 5677 5677 5679 5679 5680 5681 5682 5682 5682 5682 5682 5682 5681 5680 5678 5677 5675 5671 5668 5667 5666 5664 5662 5660 5657
5614 5615 5616 5617 5620 5623 5628 5632 5637 5641 5646 5650 5654 5657 5659 5661 5663 5665 5667 5668 5670 5671 5671 5672 5673 5674 5674 5674 5675 5675 5675 5674 5673 5671 5670 5668 5664 5661 5659 5658 5657 5655 5653
5604 5604 5606 5607 5610 5613 5617 5621 5626 5631 5635 5640 5643 5647 5649 5650 5652 5654 5656 5658 5660 5661 5662 5663 5664 5665 5666 5667 5667 5667 5668 5668 5667 5665 5664 5662 5661 5658 5654 5652 5651 5649 5647
5594 5594 5596 5597 5600 5604 5607 5611 5615 5619 5625 5629 5632 5635 5639 5640 5641 5643 5646 5648 5649 5650 5652 5653 5655 5656 5658 5658 5659 5660 5660 5661 5661 5659 5658 5657 5656 5654 5651 5648 5645 5643 5641
5584 5585 5587 5589 5592 5594 5597 5601 5605 5608 5614 5617 5620 5623 5626 5629 5630 5632 5634 5636 5637 5639 5641 5643 5644 5646 5648 5648 5650 5651 5652 5653 5653 5653 5653 5651 5650 5648 5646 5644 5641 5638 5636
5577 5578 5580 5582 5584 5585 5587 5591 5594 5598 5603 5605 5608 5612 5614 5617 5618 5620 5623 5624 5626 5629 5631 5633 5634 5635 5637 5638 5638 5640 5642 5643 5645 5646 5647 5645 5645 5643 5641 5639 5637 5634 5631
5570 5571 5572 5574 5575 5576 5577 5580 5583 5586 5591 5593 5596 5599 5602 5604 5606 5609 5611 5613 5615 5618 5620 5622 5623 5624 5626 5628 5630 5631 5631 5633 5636 5638 5640 5639 5640 5638 5635 5633 5631 5629 5627
5561 5562 5563 5565 5566 5567 5567 5569 5572 5574 5579 5581 5584 5588 5591 5592 5594 5596 5599 5601 5604 5606 5609 5611 5612 5614 5616 5618 5622 5624 5626 5631 5631 5631 5633 5633 5633 5633 5631 5628 5626 5624 5621
5553 5554 5554 5555 5557 5557 5558 5560 5563 5566 5571 5575 5576 5578 5580 5582 5583 5585 5587 5589 5592 5594 5597 5600 5601 5603 5605 5608 5611 5615 5621 5625 5625 5625 5625 5626 5627 5627 5626 5623 5621 5619 5616
5546 5546 5546 5548 5548 5549 5550 5550 5553 5557 5561 5564 5566 5568 5570 5572 5573 5574 5576 5578 5581 5583 5586 5589 5590 5592 5595 5598 5602 5605 5609 5613 5618 5620 5622 5621 5620 5620 5620 5619 5616 5614 5611
5540 5539 5539 5539 5541 5541 5541 5542 5544 5548 5551 5554 5556 5559 5561 5562 5564 5565 5566 5568 5570 5572 5575 5578 5579 5581 5586 5589 5592 5596 5601 5605 5610 5613 5616 5617 5617 5616 5614 5612 5611 5609 5605